Regional Weather Roundup
Issued by NWS

Home | Current Version | Previous Version | Text Only | Print | Product List | Glossary Off
Versions: 1 2 3 4 5 6 7 8 9 10 11 12 13 14 15 16 17 18 19 20 21 22 23 24 25 26 27 28 29 30 31 32 33 34 35 36 37 38 39 40 41 42 43 44 45 46 47 48 49 50

000
ASUS45 KPSR 271800
RWRAZ

PRELIMINARY ARIZONA REGIONAL HOURLY WEATHER ROUNDUP
NATIONAL WEATHER SERVICE PHOENIX AZ
1100 AM MST THU NOV 27 2014

NOTE: FAIR INDICATES FEW OR NO CLOUDS BELOW 12,000 FEET WITH NO
SIGNIFICANT WEATHER AND/OR OBSTRUCTIONS TO VISIBILITY.

AZZ001>003-036-271900-
NORTHWEST ARIZONA

CITY           SKY/WX    TMP DP  RH WIND       PRES   REMARKS
KINGMAN        SUNNY     64  17  16 N5        30.32S
6HR MIN TEMP:  35; 6HR MAX TEMP:  64;

$$

AZZ004>008-015-016-018-271900-
NORTH CENTRAL ARIZONA

CITY           SKY/WX    TMP DP  RH WIND       PRES   REMARKS
GRAND CANYON   SUNNY     61  11  14 SE7       30.46F
6HR MIN TEMP:  13; 6HR MAX TEMP:  61;

PRESCOTT       SUNNY     57  14  18 CALM      30.40F
6HR MIN TEMP:  29; 6HR MAX TEMP:  57;

FLAGSTAFF      NOT AVBL
PAYSON         SUNNY     64  14  14 VRB5      30.41F
PAGE           MOSUNNY   48  18  30 CALM      30.44F
6HR MIN TEMP:  34; 6HR MAX TEMP:  48;

$$

AZZ009>014-017-271900-
NORTHEAST ARIZONA

CITY           SKY/WX    TMP DP  RH WIND       PRES   REMARKS
WINSLOW        NOT AVBL
SAINT JOHNS    SUNNY     48  19  31 CALM      30.45F
6HR MIN TEMP:  18; 6HR MAX TEMP:  48;

SHOW LOW       SUNNY     50  16  25 N6        30.49F
$$

AZZ023-271900-
GREATER PHOENIX AREA

CITY           SKY/WX    TMP DP  RH WIND       PRES   REMARKS
PHOENIX        MOSUNNY   70  26  19 CALM      30.20F
6HR MIN TEMP:  47; 6HR MAX TEMP:  70;

GLENDALE       SUNNY     66  30  26 CALM      30.22F
DEER VALLEY    SUNNY     73  19  13 W3        30.21F
6HR MIN TEMP:  47; 6HR MAX TEMP:  74;

SCOTTSDALE     SUNNY     71  25  17 CALM      30.23F
6HR MIN TEMP:  44; 6HR MAX TEMP:  71;

MESA-GATEWAY   SUNNY     64  23  20 CALM      30.23
CHANDLER       SUNNY     66  28  24 CALM      30.22F
$$

AZZ027-028-271900-
SOUTHWEST MARICOPA COUNTY AND PINAL COUNTY

CITY           SKY/WX    TMP DP  RH WIND       PRES   REMARKS
CASA GRANDE    SUNNY     73  23  15 E5        30.21F
6HR MIN TEMP:  39; 6HR MAX TEMP:  73;

$$

AZZ503-504-507>509-271900-
SOUTHEAST ARIZONA

CITY           SKY/WX    TMP DP  RH WIND       PRES   REMARKS
TUCSON         SUNNY     78  21  12 E16G26    30.24F
6HR MIN TEMP:  41; 6HR MAX TEMP:  78;

RYAN FIELD       N/A     81  30  16 E16G22    30.22
NOGALES        SUNNY     76  18  11 SE14G20   30.27F
6HR MIN TEMP:  45; 6HR MAX TEMP:  76;

SIERRA VISTA   SUNNY     68  19  15 SE12      30.34F
6HR MIN TEMP:  43; 6HR MAX TEMP:  68;

SAFFORD        SUNNY     63  20  19 SE8       30.36F
6HR MIN TEMP:  37; 6HR MAX TEMP:  63;

$$

AZZ020-021-025-026-031-271900-
SOUTHWEST ARIZONA

CITY           SKY/WX    TMP DP  RH WIND       PRES   REMARKS
YUMA           NOT AVBL
$$

CAZ031-033-041-043-047-048-061-271900-
SOUTHERN CALIFORNIA

CITY           SKY/WX    TMP DP  RH WIND       PRES   REMARKS
DOWNTOWN L.A.  SUNNY     78  25  14 VRB3      30.10F
6HR MIN TEMP:  61; 6HR MAX TEMP:  78;

L.A. AIRPORT   PTSUNNY   81  19  10 NE7       30.11S
6HR MIN TEMP:  60; 6HR MAX TEMP:  81;

SAN DIEGO      MOSUNNY   78  29  16 CALM      30.10F
6HR MIN TEMP:  55; 6HR MAX TEMP:  78;

BURBANK        SUNNY     73  32  22 CALM      30.13F
6HR MIN TEMP:  52; 6HR MAX TEMP:  73;

ONTARIO        PTSUNNY   77  21  12 CALM      30.14F
6HR MIN TEMP:  49; 6HR MAX TEMP:  77;

RIVERSIDE      MOSUNNY   75  28  17 CALM      30.14F
6HR MIN TEMP:  53; 6HR MAX TEMP:  75;

PALM SPRINGS   SUNNY     75  23  14 CALM      30.19F
6HR MIN TEMP:  46; 6HR MAX TEMP:  75;

EL CENTRO NAS  SUNNY     71  25  17 W5        30.17S
6HR MIN TEMP:  44; 6HR MAX TEMP:  71;

IMPERIAL       SUNNY     68  33  27 CALM      30.16F
6HR MIN TEMP:  44; 6HR MAX TEMP:  69;

BLYTHE         SUNNY     66  16  14 SW3       30.21F
6HR MIN TEMP:  47; 6HR MAX TEMP:  67;

$$

NVZ020-UTZ003-271900-
SOUTHERN NEVADA-UTAH

CITY           SKY/WX    TMP DP  RH WIND       PRES   REMARKS
LAS VEGAS      NOT AVBL
SALT LAKE CITY CLOUDY    52  25  35 SE9       30.29S
6HR MIN TEMP:  44; 6HR MAX TEMP:  52;

$$

NMZ009-TXZ055-271900-
NEW MEXICO-WEST TEXAS

CITY           SKY/WX    TMP DP  RH WIND       PRES   REMARKS
ALBUQUERQUE    MOSUNNY   47  23  38 W3        30.46F
6HR MIN TEMP:  31; 6HR MAX TEMP:  47;

EL PASO        SUNNY     58  21  24 E3        30.41F
6HR MIN TEMP:  32; 6HR MAX TEMP:  58;

$$


........................KEY........................
SKY/WX - SKY CONDITION/WEATHER
TMP    - TEMPERATURE IN FAHRENHEIT
DP     - DEW POINT IN FAHRENHEIT
RH     - RELATIVE HUMIDITY IN PERCENT
WIND   - DIRECTION AND SPEED IN MILES PER HOUR (MPH)
VRB    - VARIABLE WIND DIRECTION
PRES   - MEAN SEA LEVEL PRESSURE IN INCHES OF MERCURY
         F - FALLING PRESSURE   R - RISING PRESSURE
         S - STEADY PRESSURE
VSB    - VISIBILITY IN MILES
HX     - HEAT INDEX IN FAHRENHEIT
WCI    - WIND CHILL INDEX IN FAHRENHEIT
TC     - TEMPERATURE IN CELSIUS WHICH IS ALSO KNOWN AS
         TEMPERATURE IN CENTIGRADE
AFB    - AIR FORCE BASE
         LUKE AFB IS LUKE AIR FORCE BASE
         DAVIS-MONTHAN IS DAVIS-MONTHAN AIR FORCE BASE
NAS    - NAVAL AIR STATION
         EL CENTRO NAS IS EL CENTRO NAVAL AIR STATION
N/A    - NOT AVAILABLE



USA.gov is the U.S. government's official web portal to all federal, state and local government web resources and services.